Location: Unspecified
(0.0000°N, 0.0000°E)
Time: 00:56:03
(UTC+00:00)

Courier 1B - Visible Passes

Search period start: 26 May 2019 00:00
Search period end: 05 June 2019 00:00
Orbit: 963 x 1209 km, 28.3° (Epoch: 25 May)

Date Brightness Start Highest point End Pass type
(mag) Time Alt. Az. Time Alt. Az. Time Alt. Az.
26 May 9.7 02:36:58 19° NNE 02:36:58 19° NNE 02:38:49 10° NE visible
26 May 9.7 04:24:08 10° NW 04:26:58 13° NNW 04:29:45 10° N visible
27 May 9.4 03:33:17 18° NNW 03:33:17 18° NNW 03:37:22 10° NNE visible
28 May 9.8 02:42:41 16° NNE 02:42:41 16° NNE 02:44:29 10° NNE visible
29 May 9.9 03:38:59 10° NNW 03:39:54 10° NNW 03:40:50 10° NNW visible
30 May 10.0 02:48:15 12° N 02:48:15 12° N 02:49:28 10° N visible
31 May 9.7 19:12:01 10° S 19:12:57 10° SSE 19:13:20 10° SSE visible
01 Jun 9.7 20:08:31 10° SSW 20:10:11 15° SSW 20:10:11 15° SSW visible
02 Jun 9.3 19:15:25 10° SSW 19:20:07 17° SSE 19:20:14 17° SSE visible
03 Jun 9.6 18:22:46 10° S 18:25:48 12° SSE 18:28:52 10° SE visible
03 Jun 9.2 20:13:57 10° SW 20:17:20 24° SSW 20:17:20 24° SSW visible
04 Jun 8.7 19:20:33 10° SSW 19:26:57 28° SSE 19:27:39 27° SE visible
04 Jun 10.0 21:13:41 10° WSW 21:14:36 14° WSW 21:14:36 14° WSW visible
